Terug naar catalogus

THORAD AGENA D DEB

ActiefPO
NORAD 4912·DEBRIS·🇺🇸 United States

Gelanceerd Apr 8, 1970 vanaf Vandenberg Space Force Base

Loading…

Volgende Passages (komende 24 uur)

TLE

VersSource: Space-Track

Epoch: Sep 14, 2026, 07:44 UTC

1 04912U 70025FJ  26257.32251240  .00001852  00000-0  77819-3 0  9992
2 04912  99.7285  28.5236 0035755  54.6523 305.7987 14.26955624866805

Volg THORAD AGENA D DEB in realtime met AllMySat

Download on the App Store